Kingston, Jamaica

4:04 AM EST on February 26, 2017 (GMT -0500)
Norman Manley International

Weather History for MKJP - August, 2011

Change the Weather History Date:

Monday, August 22, 2011

  Actual Average Record
Temperature  
Mean Temperature 84 °F -  
Max Temperature 90 °F 87 °F 95 °F (2002)
Min Temperature 78 °F 78 °F 77 °F (2007)
Cooling Degree Days 19    
Growing Degree Days 34 (Base 50)    
Moisture  
Dew Point 69 °F    
Average Humidity 63    
Maximum Humidity 74    
Minimum Humidity 49    
Precipitation  
Precipitation 0.00 in - - ()
Sea Level Pressure  
Sea Level Pressure 29.84 in    
Wind  
Wind Speed 5 mph ()    
Max Wind Speed 9 mph    
Max Gust Speed -    
Visibility 6.1 miles    
Events Thunderstorm    
Averages and records for this station are not official NWS values.
T = Trace of Precipitation, MM = Missing Value Source: Averaged Metar Reports

Daily Weather History Graph

Daily Weather History Graph

Search for Another Location

Airport or City:

Trip Planner

Search our weather history database for the weather conditions in past years. The results will help you decide how hot, cold, wet, or windy it might be!

Date:

Astronomy

Aug. 22, 2011 Rise Set
Actual Time 5:50 AM EST 6:28 PM EST
Civil Twilight 5:28 AM EST 6:51 PM EST
Nautical Twilight 5:02 AM EST 7:17 PM EST
Astronomical Twilight 4:35 AM EST 7:43 PM EST
Moon No Moon Rise 1:02 PM EST (8/22)
Length of Visible Light 13h 22m
Length of Day
12h 37m
Last Quarter, 42% of the Moon is Illuminated
Aug 22
Last Quarter
Aug 28
New
Sep 4
First Quarter
Sep 12
Full
Sep 20
Last Quarter

Hourly Weather History & Observations

Time (EST) Temp. Heat Index Dew Point Humidity Pressure Visibility Wind Dir Wind Speed Gust Speed Precip Events Conditions
12:00 AM 80.6 °F 84.6 °F 71.6 °F 74% 29.92 in 6.2 mi NW 3.5 mph - N/A   Partly Cloudy
1:00 AM - - - %  in - Calm Calm - -  
1:00 AM 80.6 °F 83.9 °F 69.8 °F 70% 29.86 in 6.2 mi North 4.6 mph - N/A   Partly Cloudy
2:00 AM 78.8 °F - 69.8 °F 74% 29.86 in 6.2 mi NNW 8.1 mph - N/A   Partly Cloudy
3:00 AM 78.8 °F - 68.0 °F 69% 29.86 in 6.2 mi North 8.1 mph - N/A   Partly Cloudy
4:00 AM 79 °F - 68 °F 61% 29.86 in 4 mi NNW 3.5 mph - -   Haze
4:00 AM 78.8 °F - 68.0 °F 69% 29.86 in 6.2 mi NNW 3.5 mph - N/A   Partly Cloudy
5:00 AM 78.8 °F - 68.0 °F 69% 29.86 in 6.2 mi North 4.6 mph - N/A   Partly Cloudy
6:00 AM 78.8 °F - 68.0 °F 69% 29.86 in 6.2 mi North 5.8 mph - N/A   Mostly Cloudy
7:00 AM - - - %  in - Calm Calm - -  
7:00 AM 80.6 °F 83.2 °F 68.0 °F 65% 29.86 in 6.2 mi NNE 3.5 mph - N/A   Mostly Cloudy
8:00 AM 82.4 °F 85.4 °F 68.0 °F 62% 29.86 in 6.2 mi North 1.2 mph - N/A   Mostly Cloudy
9:00 AM 84.2 °F 87.3 °F 68.0 °F 58% 29.86 in 6.2 mi South 5.8 mph - N/A   Scattered Clouds
10:00 AM - - - %  in - Calm Calm - -  
10:00 AM 84.2 °F 86.6 °F 66.2 °F 55% 29.89 in 6.2 mi SE 5.8 mph - N/A   Scattered Clouds
11:00 AM 84.2 °F 88.4 °F 69.8 °F 62% 29.86 in 6.2 mi ESE 6.9 mph - N/A   Scattered Clouds
12:00 PM 86.0 °F 88.2 °F 66.2 °F 51% 29.86 in 6.2 mi SE 9.2 mph - N/A   Scattered Clouds
1:00 PM 84 °F - 68 °F 49% 29.84 in 4 mi SSE 8.1 mph - -   Haze
1:00 PM 84.2 °F 87.3 °F 68.0 °F 58% 29.83 in 6.2 mi SSE 8.1 mph - N/A   Scattered Clouds
2:00 PM 84.2 °F 88.4 °F 69.8 °F 62% 29.80 in 6.2 mi South 5.8 mph - N/A   Scattered Clouds
3:00 PM 86.0 °F 90.4 °F 69.8 °F 58% 29.80 in 6.2 mi South 4.6 mph - N/A   Scattered Clouds
4:00 PM 86 °F - 70 °F 49% 29.81 in 4 mi SSW 5.8 mph - -   Haze
4:00 PM 86.0 °F 90.4 °F 69.8 °F 58% 29.80 in 6.2 mi SSW 5.8 mph - N/A   Partly Cloudy
5:00 PM 86.0 °F 91.8 °F 71.6 °F 62% 29.80 in 6.2 mi SSW 6.9 mph - N/A   Partly Cloudy
6:00 PM 84.2 °F 88.4 °F 69.8 °F 62% 29.80 in 6.2 mi South 4.6 mph - N/A   Scattered Clouds
7:00 PM 84 °F - 70 °F 55% 29.84 in 4 mi SSE 4.6 mph - -   Haze
7:00 PM 84.2 °F 88.4 °F 69.8 °F 62% 29.83 in 6.2 mi SSE 4.6 mph - N/A   Partly Cloudy
8:00 PM 82.4 °F 87.2 °F 71.6 °F 70% 29.83 in 6.2 mi ESE 3.5 mph - N/A Thunderstorm Partly Cloudy
9:00 PM 82.4 °F 87.2 °F 71.6 °F 70% 29.83 in 6.2 mi East 3.5 mph - N/A Thunderstorm Partly Cloudy
10:00 PM 82 °F - 71 °F 60% 29.85 in 12 mi North 4.6 mph - -   Partly Cloudy
10:00 PM 82.4 °F 86.3 °F 69.8 °F 66% 29.83 in 6.2 mi North 4.6 mph - N/A Thunderstorm Partly Cloudy
11:00 PM 80.6 °F 83.9 °F 69.8 °F 70% 29.83 in 6.2 mi East 2.3 mph - N/A   Partly Cloudy